Location: Blackfoot
(53.5367°N, 112.7800°W)
Time: 23:21:11
(UTC-06:00)

Amateur Radio Satellites - All Passes

Search period start: 25 September 2016 22:51
Search period end: 26 September 2016 22:51
Location: Blackfoot, 53.5367°N, 112.7800°W

Satellite Date Start Highest point End Downlink Frequencies (MHz)
Time Altitude Azimuth
AISAT 25 Sep 22:51:15 22:54:16 18° 55° (NE) 22:57:17 437.250
AUBIESAT-1 25 Sep 22:52:12 22:54:45 17° 52° (NE) 22:57:12 437.475
CUSAT 1 25 Sep 22:57:48 23:03:00 22° 314° (NW) 23:08:45 437.405
UNISAT 6 25 Sep 23:00:29 23:03:56 22° 92° (E) 23:07:24 437.425
SPROUT 25 Sep 23:02:43 23:04:37 13° 52° (NE) 23:06:31 437.525
AO-85 25 Sep 23:10:46 23:15:48 61° 128° (SE) 23:20:29 145.980
UKube-1 25 Sep 23:11:29 23:13:55 15° 53° (NE) 23:16:21 .
PRISM 25 Sep 23:17:08 23:21:11 51° 292° (WNW) 23:25:12 437.425
HUMSAT D 25 Sep 23:22:30 23:26:18 37° 263° (W) 23:30:11 437.325/437.525
ESTCUBE 1 25 Sep 23:24:02 23:28:25 50° 68° (ENE) 23:32:51 437.505/2401.250
M-CUBED/EXP-1 PRIME 25 Sep 23:26:05 23:29:50 37° 61° (ENE) 23:33:20 437.505
VELOX 1 25 Sep 23:33:45 23:37:48 35° 64° (ENE) 23:41:53 145.980
DX 1 25 Sep 23:34:03 23:37:42 26° 60° (ENE) 23:41:20 434.975-435.025
ANTELSAT 25 Sep 23:35:33 23:39:44 44° 99° (E) 23:43:59 437.575/2403.000
DELFI C3 25 Sep 23:36:05 23:38:41 16° 271° (W) 23:41:17 145.870
Cosmos 2499 25 Sep 23:39:07 23:42:18 13° 289° (WNW) 23:45:35 435.465 / 435.565
CUBEBUG 1 25 Sep 23:43:49 23:48:06 51° 68° (ENE) 23:52:24 437.445
RS-15 25 Sep 23:44:54 23:56:48 67° 328° (NNW) 00:09:11 29.354- 29.394
TIGRISAT 25 Sep 23:56:42 00:01:02 65° 102° (ESE) 00:05:26 435.000
QB50P2 26 Sep 00:00:35 00:03:01 15° 88° (E) 00:05:26 145.880/145.840
Cosmos 2491 26 Sep 00:01:27 00:06:28 16° 37° (NE) 00:11:28 435.465 / 435.565
POLYITAN 1 26 Sep 00:02:50 00:05:15 15° 88° (E) 00:07:39 437.675
DANDE 26 Sep 00:07:49 00:11:24 15° 322° (NW) 00:15:25 436.750
50 SAT 26 Sep 00:10:26 00:14:03 67° 72° (ENE) 00:17:43 437.505
SO-50 26 Sep 00:15:49 00:20:29 72° 42° (NE) 00:25:01 436.795
AUBIESAT-1 26 Sep 00:24:51 00:28:52 74° 249° (WSW) 00:32:38 437.475
AISAT 26 Sep 00:25:45 00:30:13 81° 253° (WSW) 00:34:43 437.250
ISS 26 Sep 00:26:23 00:29:36 54° 169° (S) 00:32:49 145.825
TISAT 1 26 Sep 00:30:06 00:33:05 19° 58° (ENE) 00:36:04 437.305
SPROUT 26 Sep 00:35:35 00:39:49 71° 73° (ENE) 00:44:06 437.525
JAS-2 26 Sep 00:36:31 00:43:38 36° 91° (E) 00:50:37 435.910
UNISAT 6 26 Sep 00:36:42 00:40:57 54° 291° (WNW) 00:45:16 437.425
QB50P1 26 Sep 00:42:49 00:46:38 33° 96° (E) 00:50:27 145.935-145.965
DUCHIFAT 1 26 Sep 00:43:20 00:47:01 29° 95° (E) 00:50:42 145.980
UKube-1 26 Sep 00:44:58 00:49:19 82° 71° (ENE) 00:53:41 .
AO-85 26 Sep 00:51:51 00:56:31 38° 329° (NNW) 01:00:51 145.980
BUGSAT 1 26 Sep 00:55:45 00:58:32 18° 90° (E) 01:01:19 437.445
POPSAT HIP 1 26 Sep 00:56:00 01:00:01 42° 98° (E) 01:04:02 437.405
M-CUBED/EXP-1 PRIME 26 Sep 01:00:50 01:04:26 29° 257° (WSW) 01:07:48 437.505
ESTCUBE 1 26 Sep 01:01:43 01:05:30 25° 268° (W) 01:09:18 437.505/2401.250
DX 1 26 Sep 01:09:25 01:13:41 49° 260° (W) 01:17:57 434.975-435.025
VELOX 1 26 Sep 01:10:11 01:14:17 35° 263° (W) 01:18:24 145.980
ANTELSAT 26 Sep 01:12:36 01:16:20 28° 298° (WNW) 01:20:07 437.575/2403.000
NANOSAT C BR1 26 Sep 01:13:53 01:18:03 60° 102° (ESE) 01:22:12 145.865
ITUPSAT 1 26 Sep 01:18:27 01:21:30 17° 52° (NE) 01:24:33 437.325
CUBEBUG 1 26 Sep 01:21:04 01:24:40 24° 268° (W) 01:28:16 437.445
SWISSCUBE 26 Sep 01:31:58 01:35:39 23° 57° (ENE) 01:39:22 437.505
TIGRISAT 26 Sep 01:34:09 01:37:23 21° 301° (WNW) 01:40:39 435.000
QB50P2 26 Sep 01:35:09 01:39:23 79° 287° (WNW) 01:43:36 145.880/145.840
POLYITAN 1 26 Sep 01:37:23 01:41:37 78° 287° (WNW) 01:45:50 437.675
BEESAT 26 Sep 01:44:55 01:48:49 26° 58° (ENE) 01:52:45 436.000
50 SAT 26 Sep 01:46:04 01:48:00 14° 271° (W) 01:49:57 437.505
SO-50 26 Sep 01:56:52 02:00:34 24° 243° (WSW) 02:04:11 436.795
Cosmos 2491 26 Sep 01:57:45 02:06:14 46° 66° (ENE) 02:14:38 435.465 / 435.565
RS-15 26 Sep 01:59:56 02:11:42 50° 360° (N) 02:23:41 29.354- 29.394
ISS 26 Sep 02:02:42 02:05:56 57° 188° (S) 02:09:10 145.825
TISAT 1 26 Sep 02:04:09 02:08:20 67° 258° (WSW) 02:12:31 437.305
AISAT 26 Sep 02:05:34 02:07:27 12° 275° (W) 02:09:20 437.250
BEESAT 2 26 Sep 02:08:42 02:09:59 11° 111° (ESE) 02:11:16 435.950
SPROUT 26 Sep 02:13:31 02:16:16 17° 271° (W) 02:19:01 437.525
Oscar 19 26 Sep 02:15:15 02:19:39 27° 93° (E) 02:23:59 437.125/150
UNISAT 6 26 Sep 02:16:00 02:16:48 10° 311° (NW) 02:17:36 437.425
QB50P1 26 Sep 02:18:37 02:22:26 34° 295° (WNW) 02:26:15 145.935-145.965
DUCHIFAT 1 26 Sep 02:18:55 02:22:48 37° 294° (WNW) 02:26:40 145.980
JAS-2 26 Sep 02:21:21 02:29:09 71° 292° (WNW) 02:36:52 435.910
UKube-1 26 Sep 02:23:28 02:25:57 15° 272° (W) 02:28:26 .
BUGSAT 1 26 Sep 02:30:20 02:34:18 59° 289° (WNW) 02:38:15 437.445
POPSAT HIP 1 26 Sep 02:32:06 02:35:41 27° 298° (WNW) 02:39:15 437.405
AO-85 26 Sep 02:34:29 02:38:05 21° 352° (N) 02:41:28 145.980
KKS-1 26 Sep 02:37:23 02:39:14 12° 50° (NE) 02:41:04 437.445
NANOSAT C BR1 26 Sep 02:50:18 02:53:27 21° 301° (WNW) 02:56:35 145.865
BEESAT 3 26 Sep 02:52:18 02:56:03 45° 126° (SE) 02:59:51 437.485
ITUPSAT 1 26 Sep 02:53:54 02:58:40 84° 75° (ENE) 03:03:30 437.325
Gurwin Techsat 1B 26 Sep 02:55:21 03:00:02 30° 94° (E) 03:04:42 435.225
ITAMSAT 1 26 Sep 03:05:11 03:07:13 12° 83° (E) 03:09:15 435.822/435.867
YUBILEINY 26 Sep 03:07:08 03:14:48 36° 82° (E) 03:22:26 435.215
SWISSCUBE 26 Sep 03:08:18 03:13:03 68° 257° (WSW) 03:17:50 437.505
QB50P2 26 Sep 03:12:24 03:14:31 14° 307° (NW) 03:16:38 145.880/145.840
POLYITAN 1 26 Sep 03:14:40 03:16:45 14° 307° (NW) 03:18:51 437.675
STARS 26 Sep 03:16:27 03:18:46 14° 52° (NE) 03:21:05 437.465
BEESAT 26 Sep 03:21:38 03:26:19 58° 259° (W) 03:31:03 436.000
Cosmos 2504 26 Sep 03:29:25 03:33:42 17° 74° (ENE) 03:37:56 435.465 / 435.565
MOZHAYETS 4 26 Sep 03:29:58 03:34:13 39° 66° (ENE) 03:38:32
ISS 26 Sep 03:39:18 03:42:04 25° 208° (SSW) 03:44:50 145.825
BEESAT 2 26 Sep 03:43:07 03:47:04 70° 130° (SE) 03:51:03 435.950
Oscar 19 26 Sep 03:54:13 03:59:19 57° 292° (WNW) 04:04:21 437.125/150
Cosmos 2491 26 Sep 03:54:49 04:03:23 56° 270° (W) 04:11:53 435.465 / 435.565
AO-7 26 Sep 04:02:57 04:09:32 25° 89° (E) 04:16:05 29.400- 29.500
JAS-2 26 Sep 04:07:07 04:13:00 24° 314° (NW) 04:18:55 435.910
BUGSAT 1 26 Sep 04:08:30 04:08:52 10° 309° (NW) 04:09:14 437.445
KKS-1 26 Sep 04:10:35 04:14:59 63° 70° (ENE) 04:19:24 437.445
RS-15 26 Sep 04:14:19 04:26:39 67° 32° (NNE) 04:38:56 29.354- 29.394
AO-85 26 Sep 04:16:14 04:19:55 24° 16° (NNE) 04:23:23 145.980
CUSAT 1 26 Sep 04:16:33 04:21:12 16° 38° (NE) 04:25:43 437.405
BEESAT 3 26 Sep 04:30:09 04:33:49 36° 327° (NNW) 04:37:32 437.485
ITUPSAT 1 26 Sep 04:34:09 04:37:10 17° 272° (W) 04:40:12 437.325
Gurwin Techsat 1B 26 Sep 04:35:05 04:40:17 53° 293° (WNW) 04:45:25 435.225
ITAMSAT 1 26 Sep 04:42:29 04:47:42 67° 103° (ESE) 04:52:54 435.822/435.867
CUBESAT XI-V 26 Sep 04:44:02 04:48:16 34° 63° (ENE) 04:52:31 437.345
PCSat 26 Sep 04:49:10 04:52:11 15° 105° (ESE) 04:55:13 145.827
STARS 26 Sep 04:50:03 04:54:26 77° 72° (ENE) 04:58:50 437.465
SWISSCUBE 26 Sep 04:50:20 04:51:46 11° 277° (W) 04:53:13 437.505
YUBILEINY 26 Sep 05:02:17 05:11:03 70° 285° (WNW) 05:19:50 435.215
MOZHAYETS 4 26 Sep 05:07:22 05:11:29 33° 265° (W) 05:15:39
Cosmos 2504 26 Sep 05:18:30 05:25:49 73° 96° (E) 05:32:58 435.465 / 435.565
HORYU 2 26 Sep 05:18:32 05:18:56 10° 84° (E) 05:19:20 437.375
BEESAT 2 26 Sep 05:21:43 05:25:13 29° 332° (NNW) 05:28:47 435.950
DANDE 26 Sep 05:26:02 05:31:51 21° 46° (NE) 05:37:50 436.750
Oscar 19 26 Sep 05:35:09 05:37:39 14° 313° (NW) 05:40:07 437.125/150
AIST 2 26 Sep 05:47:43 05:51:45 56° 128° (SE) 05:55:51 435.215
KKS-1 26 Sep 05:48:41 05:51:58 20° 269° (W) 05:55:15 437.445
Cosmos 2491 26 Sep 05:53:52 05:58:09 15° 294° (WNW) 06:02:26 435.465 / 435.565
AO-7 26 Sep 05:55:08 06:03:30 87° 111° (ESE) 06:11:50 29.400- 29.500
AO-85 26 Sep 05:56:47 06:01:10 63° 40° (NE) 06:05:12 145.980
CUSAT 1 26 Sep 05:57:56 06:05:34 44° 62° (ENE) 06:12:30 437.405
BRITE-PL 26 Sep 06:09:17 06:13:05 21° 87° (E) 06:16:40 437.365/2234.400
BEESAT 3 26 Sep 06:09:47 06:12:29 17° 350° (N) 06:15:12 437.485
AIST 1 26 Sep 06:11:43 06:15:56 47° 94° (E) 06:20:09
Gurwin Techsat 1B 26 Sep 06:16:45 06:19:09 13° 315° (NW) 06:21:34 435.225
NOAA 15 26 Sep 06:18:56 06:21:36 14° 84° (E) 06:24:14 137.62
CUBESAT XI-V 26 Sep 06:21:09 06:25:35 41° 263° (W) 06:30:05 437.345
ITAMSAT 1 26 Sep 06:22:33 06:26:48 26° 304° (WNW) 06:31:04 435.822/435.867
RS-15 26 Sep 06:27:20 06:39:22 62° 240° (WSW) 06:51:12 29.354- 29.394
Cubesat XI-IV 26 Sep 06:27:45 06:30:23 14° 84° (E) 06:33:01 437.490
CUTE-I 26 Sep 06:28:29 06:31:14 14° 84° (E) 06:33:58 437.470
STARS 26 Sep 06:28:36 06:31:20 16° 271° (W) 06:34:05 437.465
PCSat 26 Sep 06:29:17 06:34:41 72° 126° (SE) 06:40:07 145.827
STRAND 1 26 Sep 06:35:04 06:39:26 29° 59° (ENE) 06:43:49 437.568
HORYU 2 26 Sep 06:51:54 06:56:21 68° 103° (ESE) 07:00:48 437.375
NOAA 18 26 Sep 06:52:03 06:55:38 17° 87° (E) 06:59:12 137.9125
BEESAT 2 26 Sep 07:01:34 07:04:12 17° 355° (N) 07:06:51 435.950
YUBILEINY 26 Sep 07:03:12 07:09:46 23° 312° (NW) 07:16:21 435.215
DANDE 26 Sep 07:08:20 07:16:25 59° 69° (ENE) 07:24:34 436.750
LilacSat-2 26 Sep 07:09:10 07:12:21 24° 93° (E) 07:15:32 437.200
Cosmos 2504 26 Sep 07:13:39 07:19:55 30° 300° (WNW) 07:26:07 435.465 / 435.565
AIST 2 26 Sep 07:26:40 07:30:28 34° 329° (NNW) 07:34:19 435.215
GONETS M04 26 Sep 07:33:52 07:38:01 14° 66° (ENE) 07:42:11
AO-85 26 Sep 07:37:49 07:41:13 24° 243° (WSW) 07:44:26 145.980
CUSAT 1 26 Sep 07:40:06 07:47:57 59° 266° (W) 07:54:54 437.405
GOMX 1 26 Sep 07:46:33 07:51:08 62° 101° (E) 07:55:26 467.674
BRITE-PL 26 Sep 07:47:04 07:52:09 66° 290° (WNW) 07:56:48 437.365/2234.400
AO-7 26 Sep 07:48:26 07:55:33 34° 315° (NW) 08:02:39 29.400- 29.500
BEESAT 3 26 Sep 07:48:38 07:51:29 19° 14° (NNE) 07:54:20 437.485
AIST 1 26 Sep 07:50:08 07:53:47 25° 294° (WNW) 07:57:25
O/OREOS (USA 219) 26 Sep 07:52:26 07:55:43 20° 102° (ESE) 07:59:02 437.305
NOAA 15 26 Sep 07:57:00 08:02:21 73° 105° (ESE) 08:07:38 137.62
Cubesat XI-IV 26 Sep 08:06:04 08:11:26 72° 104° (ESE) 08:16:48 437.490
CUTE-I 26 Sep 08:06:51 08:12:14 74° 104° (ESE) 08:17:36 437.470
CINEMA 3 26 Sep 08:07:42 08:10:04 15° 87° (E) 08:12:26 145.822/145.860
STRAND 1 26 Sep 08:13:22 08:18:22 55° 259° (W) 08:23:26 437.568
PCSat 26 Sep 08:13:33 08:18:32 35° 328° (NNW) 08:23:32 145.827
DOVE 4 26 Sep 08:17:51 08:22:07 56° 101° (E) 08:26:12 437.250
HORYU 2 26 Sep 08:29:12 08:32:31 21° 303° (WNW) 08:35:50 437.375
NOAA 18 26 Sep 08:31:36 08:37:06 88° 107° (ESE) 08:42:36 137.9125
Cosmos 2499 26 Sep 08:37:15 08:42:30 23° 78° (ENE) 08:47:44 435.465 / 435.565
PRISM 26 Sep 08:37:20 08:41:11 37° 65° (ENE) 08:45:03 437.425
COMPASS 1 26 Sep 08:38:16 08:39:53 12° 85° (E) 08:41:30 437.405
BEESAT 2 26 Sep 08:40:11 08:43:20 21° 19° (NNE) 08:46:28 435.950
RS-15 26 Sep 08:41:30 08:49:09 20° 266° (W) 08:56:45 29.354- 29.394
LilacSat-2 26 Sep 08:43:13 08:46:47 38° 292° (WNW) 08:50:22 437.200
DANDE 26 Sep 08:51:25 08:59:09 47° 270° (W) 09:06:52 436.750
CUTE 1.7 + AOD 2 26 Sep 08:56:32 09:00:24 32° 95° (E) 09:04:16 437.475
CANX-2 26 Sep 08:57:19 09:01:19 36° 96° (E) 09:05:18 2200.000
HO-68 26 Sep 08:58:27 09:05:07 40° 96° (E) 09:11:46 435.675
SEEDS 26 Sep 09:01:41 09:05:19 26° 93° (E) 09:08:56 437.485
ANTELSAT 26 Sep 09:06:23 09:08:39 14° 53° (NE) 09:10:55 437.575/2403.000
AIST 2 26 Sep 09:07:08 09:10:03 18° 353° (N) 09:13:00 435.215
JAS-2 26 Sep 09:16:10 09:18:45 12° 29° (NNE) 09:21:24 435.910
CUSAT 1 26 Sep 09:23:59 09:28:16 16° 288° (WNW) 09:32:23 437.405
GONETS M04 26 Sep 09:24:14 09:32:45 55° 90° (E) 09:41:18
GOMX 1 26 Sep 09:25:18 09:28:50 22° 303° (WNW) 09:32:12 467.674
BEESAT 3 26 Sep 09:26:12 09:30:02 44° 36° (NE) 09:33:52 437.485
TIGRISAT 26 Sep 09:26:31 09:29:32 19° 58° (ENE) 09:32:34 435.000
BRITE-PL 26 Sep 09:26:56 09:29:39 15° 311° (NW) 09:32:15 437.365/2234.400
CUBEBUG 2 26 Sep 09:27:11 09:30:46 26° 94° (E) 09:34:24 437.445
AAUSAT CUBESAT 2 26 Sep 09:29:47 09:33:26 28° 94° (E) 09:37:05 437.432
O/OREOS (USA 219) 26 Sep 09:30:05 09:34:40 70° 303° (WNW) 09:39:17 437.305
NOAA 15 26 Sep 09:37:26 09:41:40 25° 305° (NW) 09:45:53 137.62
AO-7 26 Sep 09:41:40 09:45:57 15° 340° (NNW) 09:50:14 29.400- 29.500
FUNcube-1 26 Sep 09:42:23 09:45:15 17° 89° (E) 09:48:07 145.935
CINEMA 3 26 Sep 09:43:36 09:47:46 76° 288° (WNW) 09:51:57 145.822/145.860
Cubesat XI-IV 26 Sep 09:46:48 09:51:05 25° 305° (NW) 09:55:22 437.490
CUTE-I 26 Sep 09:47:35 09:51:50 25° 305° (NW) 09:56:05 437.470
UWE-3 26 Sep 09:49:10 09:52:55 29° 95° (E) 09:56:43 435.000/436.395/437.385
DOVE 4 26 Sep 09:56:12 09:59:30 22° 301° (WNW) 10:02:43 437.250
PCSat 26 Sep 09:59:30 10:03:29 20° 353° (N) 10:07:29 145.827
UNISAT 6 26 Sep 10:05:17 10:09:17 40° 66° (ENE) 10:13:17 437.425
QB50P1 26 Sep 10:09:38 10:10:13 10° 50° (NE) 10:10:47 145.935-145.965
COMPASS 1 26 Sep 10:11:53 10:16:09 84° 106° (ESE) 10:20:23 437.405
PRISM 26 Sep 10:12:51 10:16:33 30° 264° (W) 10:20:17 437.425
NOAA 18 26 Sep 10:13:05 10:17:10 22° 308° (NW) 10:21:15 137.9125
BEESAT 2 26 Sep 10:17:51 10:21:52 63° 42° (NE) 10:25:51 435.950
POPSAT HIP 1 26 Sep 10:21:33 10:23:24 13° 52° (NE) 10:25:14 437.405
ZACube-1 26 Sep 10:22:36 10:26:39 40° 98° (E) 10:30:46 437.345
Oscar 11 26 Sep 10:24:12 10:28:20 40° 97° (E) 10:32:27 145.826/435.025
Cosmos 2499 26 Sep 10:27:36 10:34:44 85° 283° (WNW) 10:41:53 435.465 / 435.565
CUTE 1.7 + AOD 2 26 Sep 10:32:20 10:36:18 37° 294° (WNW) 10:40:16 437.475
CANX-2 26 Sep 10:33:17 10:37:09 33° 296° (WNW) 10:41:00 2200.000
DANDE 26 Sep 10:36:54 10:40:05 13° 291° (WNW) 10:43:18 436.750
SEEDS 26 Sep 10:37:08 10:41:12 43° 292° (WNW) 10:45:14 437.485
NANOSAT C BR1 26 Sep 10:38:12 10:40:51 16° 56° (NE) 10:43:29 145.865
ANTELSAT 26 Sep 10:40:27 10:44:44 82° 72° (ENE) 10:49:01 437.575/2403.000
HO-68 26 Sep 10:46:11 10:53:10 58° 298° (WNW) 11:00:07 435.675
AIST 2 26 Sep 10:46:38 10:49:53 21° 17° (NNE) 10:53:09 435.215
JAS-2 26 Sep 10:55:38 11:01:33 33° 53° (NE) 11:08:00 435.910
QB50P2 26 Sep 10:58:49 11:02:19 26° 61° (ENE) 11:05:48 145.880/145.840
HUMSAT D 26 Sep 10:59:18 11:02:43 23° 92° (E) 11:06:07 437.325/437.525
POLYITAN 1 26 Sep 11:01:04 11:04:33 26° 61° (ENE) 11:08:02 437.675
TIGRISAT 26 Sep 11:01:35 11:05:50 68° 258° (WSW) 11:10:06 435.000
CUBEBUG 2 26 Sep 11:03:34 11:07:34 43° 292° (WNW) 11:11:39 437.445
BEESAT 3 26 Sep 11:04:00 11:07:39 35° 237° (WSW) 11:11:17 437.485
AAUSAT CUBESAT 2 26 Sep 11:05:06 11:09:03 40° 293° (WNW) 11:12:58 437.432
DELFI C3 26 Sep 11:05:18 11:09:12 44° 98° (E) 11:13:03 145.870
O/OREOS (USA 219) 26 Sep 11:11:48 11:14:56 18° 325° (NW) 11:18:06 437.305
FUNcube-1 26 Sep 11:17:41 11:21:57 70° 287° (WNW) 11:26:16 145.935
GONETS M04 26 Sep 11:21:22 11:29:50 47° 294° (WNW) 11:38:22
CINEMA 3 26 Sep 11:22:27 11:24:15 13° 307° (NW) 11:26:04 145.822/145.860
UWE-3 26 Sep 11:25:32 11:29:29 39° 294° (WNW) 11:33:31 435.000/436.395/437.385
AO-7 26 Sep 11:32:13 11:35:27 13° 8° (N) 11:38:41 29.400- 29.500
DUCHIFAT 1 26 Sep 11:40:56 11:44:58 49° 69° (ENE) 11:49:02 145.980
QB50P1 26 Sep 11:41:01 11:45:08 55° 70° (ENE) 11:49:15 145.935-145.965
UNISAT 6 26 Sep 11:42:27 11:46:09 28° 266° (W) 11:49:52 437.425
PCSat 26 Sep 11:44:19 11:48:43 24° 19° (NNE) 11:53:06 145.827
COMPASS 1 26 Sep 11:48:31 11:51:10 16° 304° (NW) 11:53:48 437.405
BUGSAT 1 26 Sep 11:51:08 11:54:42 30° 64° (ENE) 11:58:16 437.445
POPSAT HIP 1 26 Sep 11:54:17 11:58:28 72° 73° (ENE) 12:02:41 437.405
BEESAT 2 26 Sep 11:56:09 11:59:23 23° 242° (WSW) 12:02:35 435.950
ZACube-1 26 Sep 11:59:08 12:02:51 30° 296° (WNW) 12:06:37 437.345
Oscar 11 26 Sep 12:00:33 12:04:23 30° 297° (WNW) 12:08:11 145.826/435.025
Oscar 19 26 Sep 12:01:35 12:04:46 17° 50° (NE) 12:07:58 437.125/150
AISAT 26 Sep 12:11:09 12:13:05 13° 86° (E) 12:15:00 437.250
NANOSAT C BR1 26 Sep 12:11:51 12:16:03 82° 254° (WSW) 12:20:17 145.865
ANTELSAT 26 Sep 12:19:45 12:22:04 14° 273° (W) 12:24:22 437.575/2403.000
Cosmos 2499 26 Sep 12:23:40 12:29:04 23° 306° (NW) 12:34:30 435.465 / 435.565
AIST 2 26 Sep 12:25:03 12:29:11 55° 39° (NE) 12:33:20 435.215
QB50P2 26 Sep 12:33:52 12:37:56 46° 261° (W) 12:42:01 145.880/145.840
HUMSAT D 26 Sep 12:34:29 12:38:35 50° 291° (WNW) 12:42:43 437.325/437.525
HO-68 26 Sep 12:34:51 12:39:33 19° 321° (NW) 12:44:15 435.675
POLYITAN 1 26 Sep 12:36:08 12:40:10 45° 261° (W) 12:44:14 437.675
JAS-2 26 Sep 12:39:20 12:45:57 76° 257° (WSW) 12:53:28 435.910
DELFI C3 26 Sep 12:40:32 12:43:51 25° 298° (WNW) 12:47:09 145.870
Gurwin Techsat 1B 26 Sep 12:45:05 12:48:46 19° 52° (NE) 12:52:27 435.225
ESTCUBE 1 26 Sep 12:46:39 12:51:03 45° 99° (E) 12:55:23 437.505/2401.250
DX 1 26 Sep 12:51:44 12:54:48 19° 90° (E) 12:57:52 434.975-435.025
VELOX 1 26 Sep 12:53:35 12:57:25 28° 94° (E) 13:01:13 145.980
FUNcube-1 26 Sep 12:55:41 12:57:29 13° 307° (NW) 12:59:18 145.935
CUBEBUG 1 26 Sep 13:02:07 13:06:16 41° 98° (E) 13:10:22 437.445
50 SAT 26 Sep 13:05:26 13:08:48 32° 97° (E) 13:12:08 437.505
YUBILEINY 26 Sep 13:07:49 13:15:00 27° 53° (NE) 13:22:08 435.215
Cosmos 2504 26 Sep 13:10:49 13:13:14 12° 39° (NE) 13:15:41 435.465 / 435.565
DUCHIFAT 1 26 Sep 13:17:37 13:20:56 22° 268° (W) 13:24:16 145.980
QB50P1 26 Sep 13:18:05 13:21:15 20° 269° (W) 13:24:25 145.935-145.965
AO-7 26 Sep 13:19:17 13:25:21 23° 35° (NE) 13:31:23 29.400- 29.500
GONETS M04 26 Sep 13:24:26 13:29:31 16° 323° (NW) 13:34:39
BUGSAT 1 26 Sep 13:26:14 13:30:02 36° 262° (W) 13:33:50 437.445
PCSat 26 Sep 13:27:50 13:33:13 58° 43° (NE) 13:38:34 145.827
AUBIESAT-1 26 Sep 13:32:05 13:34:45 22° 101° (E) 13:37:23 437.475
POPSAT HIP 1 26 Sep 13:32:09 13:34:46 16° 272° (W) 13:37:23 437.405
Oscar 19 26 Sep 13:38:06 13:43:18 72° 70° (ENE) 13:48:30 437.125/150
TISAT 1 26 Sep 13:43:10 13:44:59 12° 86° (E) 13:46:48 437.305
AISAT 26 Sep 13:45:50 13:50:17 84° 104° (ESE) 13:54:41 437.250
SPROUT 26 Sep 13:50:51 13:55:04 56° 101° (E) 13:59:14 437.525
NANOSAT C BR1 26 Sep 13:51:07 13:52:30 11° 275° (W) 13:53:54 145.865
UKube-1 26 Sep 14:01:36 14:05:54 61° 102° (ESE) 14:10:10 .
AIST 2 26 Sep 14:03:51 14:07:29 29° 240° (WSW) 14:11:07 435.215
M-CUBED/EXP-1 PRIME 26 Sep 14:07:36 14:10:57 66° 110° (ESE) 14:14:12 437.505
Gurwin Techsat 1B 26 Sep 14:22:42 14:28:01 84° 72° (ENE) 14:33:23 435.225
ESTCUBE 1 26 Sep 14:23:45 14:27:43 30° 298° (WNW) 14:31:38 437.505/2401.250
DX 1 26 Sep 14:27:06 14:31:27 65° 289° (WNW) 14:35:45 434.975-435.025
JAS-2 26 Sep 14:27:47 14:32:24 19° 280° (W) 14:37:22 435.910
ITAMSAT 1 26 Sep 14:28:14 14:32:55 36° 61° (ENE) 14:37:38 435.822/435.867
VELOX 1 26 Sep 14:29:51 14:34:02 43° 294° (WNW) 14:38:13 145.980
CUBEBUG 1 26 Sep 14:38:39 14:42:27 29° 298° (WNW) 14:46:12 437.445
50 SAT 26 Sep 14:39:04 14:42:14 27° 296° (WNW) 14:45:24 437.505
ITUPSAT 1 26 Sep 14:49:17 14:51:48 14° 86° (E) 14:54:18 437.325
Cosmos 2504 26 Sep 15:02:17 15:09:07 41° 66° (ENE) 15:16:15 435.465 / 435.565
SWISSCUBE 26 Sep 15:02:34 15:06:06 20° 90° (E) 15:09:37 437.505
YUBILEINY 26 Sep 15:04:28 15:13:15 85° 79° (E) 15:21:58 435.215
AUBIESAT-1 26 Sep 15:06:18 15:09:23 34° 300° (WNW) 15:12:24 437.475
Cosmos 2491 26 Sep 15:07:32 15:15:29 40° 84° (E) 15:23:29 435.465 / 435.565
AO-7 26 Sep 15:08:33 15:16:40 61° 59° (ENE) 15:24:47 29.400- 29.500
PCSat 26 Sep 15:11:32 15:16:27 35° 245° (WSW) 15:21:20 145.827
BEESAT 26 Sep 15:15:33 15:19:23 23° 92° (E) 15:23:11 436.000
TISAT 1 26 Sep 15:17:05 15:21:17 89° 105° (ESE) 15:25:28 437.305
Oscar 19 26 Sep 15:19:11 15:23:09 22° 270° (W) 15:27:09 437.125/150
AISAT 26 Sep 15:23:20 15:26:13 17° 305° (NW) 15:29:05 437.250
SPROUT 26 Sep 15:27:24 15:30:42 22° 300° (WNW) 15:34:00 437.525
UKube-1 26 Sep 15:38:17 15:41:36 22° 302° (WNW) 15:44:53 .
M-CUBED/EXP-1 PRIME 26 Sep 15:43:12 15:45:07 15° 310° (NW) 15:47:00 437.505
BRITE-PL 26 Sep 15:50:32 15:52:55 13° 47° (NE) 15:55:16 437.365/2234.400
Gurwin Techsat 1B 26 Sep 16:04:59 16:08:40 19° 272° (W) 16:12:23 435.225
DX 1 26 Sep 16:05:01 16:06:51 12° 310° (NW) 16:08:40 434.975-435.025
ITAMSAT 1 26 Sep 16:07:23 16:12:19 45° 261° (W) 16:17:19 435.822/435.867
NOAA 15 26 Sep 16:09:40 16:10:48 11° 41° (NE) 16:11:56 137.62
AIST 1 26 Sep 16:12:13 16:15:50 25° 66° (ENE) 16:19:24
O/OREOS (USA 219) 26 Sep 16:15:34 16:19:22 24° 42° (NE) 16:23:09 437.305
SO-50 26 Sep 16:16:25 16:20:20 25° 118° (ESE) 16:24:14 436.795
Cubesat XI-IV 26 Sep 16:20:18 16:21:20 11° 41° (NE) 16:22:24 437.490
HORYU 2 26 Sep 16:20:44 16:24:10 23° 58° (ENE) 16:27:36 437.375
CUTE-I 26 Sep 16:20:48 16:21:59 11° 41° (NE) 16:23:11 437.470
ITUPSAT 1 26 Sep 16:25:34 16:30:25 83° 106° (ESE) 16:35:15 437.325
SWISSCUBE 26 Sep 16:39:35 16:44:24 70° 290° (WNW) 16:49:10 437.505
NOAA 18 26 Sep 16:46:53 16:49:52 15° 45° (NE) 16:52:50 137.9125
BEESAT 26 Sep 16:52:49 16:57:33 60° 291° (WNW) 17:02:16 436.000
TISAT 1 26 Sep 16:53:56 16:56:22 15° 305° (NW) 16:58:47 437.305
MOZHAYETS 4 26 Sep 16:55:12 16:59:34 38° 97° (E) 17:03:54
Cosmos 2504 26 Sep 16:55:42 17:02:46 55° 268° (W) 17:10:13 435.465 / 435.565
AO-7 26 Sep 17:01:58 17:09:47 44° 262° (W) 17:17:40 29.400- 29.500
YUBILEINY 26 Sep 17:02:08 17:09:05 28° 283° (WNW) 17:16:01 435.215
Cosmos 2491 26 Sep 17:03:16 17:11:59 63° 288° (WNW) 17:20:48 435.465 / 435.565
GOMX 1 26 Sep 17:23:14 17:27:33 26° 60° (ENE) 17:31:41 467.674
BRITE-PL 26 Sep 17:24:49 17:30:16 49° 67° (ENE) 17:35:35 437.365/2234.400
GONETS M04 26 Sep 17:30:02 17:34:19 14° 33° (NNE) 17:38:35
KKS-1 26 Sep 17:31:29 17:35:50 51° 101° (E) 17:40:09 437.445
NOAA 15 26 Sep 17:44:21 17:49:18 41° 62° (ENE) 17:54:16 137.62
HO-68 26 Sep 17:49:19 17:54:02 19° 39° (NE) 17:58:44 435.675
AIST 1 26 Sep 17:49:31 17:53:39 44° 266° (W) 17:57:43
DOVE 4 26 Sep 17:52:49 17:56:29 22° 59° (ENE) 18:00:01 437.250
O/OREOS (USA 219) 26 Sep 17:54:39 17:59:17 73° 243° (WSW) 18:03:51 437.305
Cubesat XI-IV 26 Sep 17:55:11 18:00:07 41° 63° (ENE) 18:05:06 437.490
SO-50 26 Sep 17:55:38 18:00:27 74° 317° (NW) 18:05:13 436.795
CUTE-I 26 Sep 17:55:48 18:00:46 42° 63° (ENE) 18:05:45 437.470
HORYU 2 26 Sep 17:56:02 18:00:23 60° 258° (WSW) 18:04:47 437.375
LilacSat-2 26 Sep 17:57:08 18:00:27 30° 65° (ENE) 18:03:48 437.200
ITUPSAT 1 26 Sep 18:04:17 18:07:44 20° 305° (NW) 18:11:09 437.325
STARS 26 Sep 18:09:13 18:13:34 60° 102° (ESE) 18:17:53 437.465
CUBESAT XI-V 26 Sep 18:10:58 18:15:15 33° 95° (E) 18:19:29 437.345
Cosmos 2499 26 Sep 18:17:43 18:21:51 15° 45° (NE) 18:26:07 435.465 / 435.565
SWISSCUBE 26 Sep 18:18:45 18:21:25 15° 310° (NW) 18:24:03 437.505
NOAA 18 26 Sep 18:24:10 18:29:31 58° 67° (ENE) 18:34:53 137.9125
CANX-2 26 Sep 18:24:13 18:25:04 11° 50° (NE) 18:25:56 2200.000
BEESAT 26 Sep 18:32:16 18:34:26 13° 312° (NW) 18:36:37 436.000
MOZHAYETS 4 26 Sep 18:32:30 18:36:42 35° 296° (WNW) 18:40:55
Cosmos 2504 26 Sep 18:51:49 18:54:31 12° 291° (WNW) 18:57:14 435.465 / 435.565
RS-15 26 Sep 18:54:42 18:59:22 13° 88° (E) 19:04:06 29.354- 29.394
GOMX 1 26 Sep 18:59:57 19:05:18 66° 258° (WSW) 19:10:24 467.674
BRITE-PL 26 Sep 19:03:39 19:08:52 36° 266° (W) 19:13:59 437.365/2234.400
Cosmos 2491 26 Sep 19:04:46 19:11:02 21° 315° (NW) 19:17:20 435.465 / 435.565
CUSAT 1 26 Sep 19:06:57 19:12:24 28° 81° (E) 19:18:37 437.405
KKS-1 26 Sep 19:08:30 19:12:11 26° 300° (WNW) 19:15:49 437.445
CINEMA 3 26 Sep 19:14:51 19:18:41 30° 64° (ENE) 19:22:25 145.822/145.860
NOAA 15 26 Sep 19:24:07 19:29:07 40° 263° (W) 19:34:08 137.62
GONETS M04 26 Sep 19:26:09 19:34:24 41° 62° (ENE) 19:42:33
DOVE 4 26 Sep 19:28:50 19:33:48 72° 257° (WSW) 19:38:31 437.250
LilacSat-2 26 Sep 19:31:24 19:34:45 30° 264° (W) 19:38:08 437.200
HO-68 26 Sep 19:33:27 19:40:26 57° 62° (ENE) 19:47:25 435.675
COMPASS 1 26 Sep 19:34:27 19:37:28 20° 58° (ENE) 19:40:30 437.405
Cubesat XI-IV 26 Sep 19:35:17 19:40:15 40° 263° (W) 19:45:16 437.490
CUTE-I 26 Sep 19:35:55 19:40:52 39° 263° (W) 19:45:52 437.470
O/OREOS (USA 219) 26 Sep 19:36:08 19:37:51 12° 263° (W) 19:39:33 437.305
SO-50 26 Sep 19:37:32 19:41:38 27° 340° (NNW) 19:45:41 436.795
STARS 26 Sep 19:46:12 19:49:35 22° 302° (WNW) 19:52:57 437.465
CUBESAT XI-V 26 Sep 19:48:18 19:52:43 40° 295° (WNW) 19:57:06 437.345
ZACube-1 26 Sep 19:51:32 19:53:00 12° 52° (NE) 19:54:28 437.345
Oscar 11 26 Sep 19:51:51 19:53:41 13° 52° (NE) 19:55:32 145.826/435.025
CUTE 1.7 + AOD 2 26 Sep 19:54:59 19:59:05 49° 69° (ENE) 20:03:14 437.475
CANX-2 26 Sep 19:55:53 20:00:03 56° 70° (ENE) 20:04:15 2200.000
SEEDS 26 Sep 19:59:11 20:03:07 40° 67° (ENE) 20:07:07 437.485
NOAA 18 26 Sep 20:05:51 20:10:33 29° 267° (W) 20:15:16 137.9125
Cosmos 2499 26 Sep 20:09:44 20:16:56 53° 71° (ENE) 20:24:38 435.465 / 435.565
STRAND 1 26 Sep 20:17:18 20:21:54 32° 94° (E) 20:26:30 437.568
DANDE 26 Sep 20:24:00 20:29:01 36° 86° (E) 20:35:22 436.750
AAUSAT CUBESAT 2 26 Sep 20:25:44 20:29:40 42° 67° (ENE) 20:33:39 437.432
DELFI C3 26 Sep 20:25:57 20:26:43 10° 52° (NE) 20:27:30 145.870
CUBEBUG 2 26 Sep 20:31:17 20:35:17 46° 68° (ENE) 20:39:16 437.445
GOMX 1 26 Sep 20:42:08 20:44:16 12° 277° (W) 20:46:21 467.674
FUNcube-1 26 Sep 20:43:51 20:47:23 28° 63° (ENE) 20:50:56 145.935
CUSAT 1 26 Sep 20:46:58 20:53:32 82° 284° (WNW) 21:01:28 437.405
CINEMA 3 26 Sep 20:51:35 20:55:46 40° 262° (W) 20:59:50 145.822/145.860
UWE-3 26 Sep 20:52:11 20:56:12 50° 69° (ENE) 21:00:14 435.000/436.395/437.385
RS-15 26 Sep 20:57:25 21:08:25 50° 114° (ESE) 21:19:54 29.354- 29.394
COMPASS 1 26 Sep 21:08:27 21:12:37 65° 258° (WSW) 21:16:50 437.405
DOVE 4 26 Sep 21:10:19 21:12:16 12° 276° (W) 21:14:12 437.250
SO-50 26 Sep 21:19:48 21:23:28 22° 4° (N) 21:27:05 436.795
HO-68 26 Sep 21:21:47 21:28:27 40° 264° (W) 21:35:09 435.675
GONETS M04 26 Sep 21:23:06 21:31:49 65° 267° (W) 21:40:25
ZACube-1 26 Sep 21:24:26 21:28:32 68° 73° (ENE) 21:32:41 437.345
Oscar 11 26 Sep 21:24:45 21:29:03 68° 72° (ENE) 21:33:22 145.826/435.025
CUTE 1.7 + AOD 2 26 Sep 21:31:47 21:35:11 23° 268° (W) 21:38:38 437.475
CANX-2 26 Sep 21:33:04 21:36:15 20° 270° (W) 21:39:29 2200.000
SEEDS 26 Sep 21:35:19 21:38:57 28° 266° (W) 21:42:39 437.485
PRISM 26 Sep 21:47:43 21:51:08 24° 93° (E) 21:54:30 437.425
STRAND 1 26 Sep 21:56:21 22:01:18 48° 294° (WNW) 22:06:14 437.568
HUMSAT D 26 Sep 21:56:27 22:00:11 34° 65° (ENE) 22:03:57 437.325/437.525
DELFI C3 26 Sep 21:56:48 22:00:45 61° 72° (ENE) 22:04:46 145.870
AO-85 26 Sep 21:57:03 22:01:09 25° 118° (ESE) 22:05:04 145.980
ISS 26 Sep 21:59:41 22:01:39 15° 144° (SE) 22:03:39 145.825
AAUSAT CUBESAT 2 26 Sep 22:01:46 22:05:19 26° 267° (W) 22:08:54 437.432
Cosmos 2499 26 Sep 22:03:09 22:09:57 42° 272° (W) 22:17:13 435.465 / 435.565
DANDE 26 Sep 22:06:01 22:11:30 54° 293° (WNW) 22:18:40 436.750
CUBEBUG 2 26 Sep 22:08:45 22:12:09 24° 268° (W) 22:15:33 437.445
ESTCUBE 1 26 Sep 22:17:37 22:20:25 16° 54° (NE) 22:23:13 437.505/2401.250
FUNcube-1 26 Sep 22:19:38 22:23:32 39° 262° (W) 22:27:28 145.935
VELOX 1 26 Sep 22:24:08 22:25:21 11° 49° (NE) 22:26:34 145.980
ANTELSAT 26 Sep 22:27:29 22:28:51 11° 85° (E) 22:30:12 437.575/2403.000
UWE-3 26 Sep 22:29:44 22:32:58 22° 269° (W) 22:36:12 435.000/436.395/437.385
CUBEBUG 1 26 Sep 22:30:18 22:32:37 14° 53° (NE) 22:34:56 437.445
CUSAT 1 26 Sep 22:31:13 22:36:56 26° 310° (NW) 22:43:18 437.405
